contact:dominique.lefevre@mio.osupytheas.fr, maurice.libes@osupytheas.fr, didier.mallarino@osupytheas.fr
Project:EMSO http://www.emso-fr.org/EMSO-France
Depth: 2436.0 m
Title:EMSO Ligure Ouest : Data MII capteur CSTAR
DateTime,Latitude,Longitude,Instrument_Serial,Reference_Counts,Signal_Counts,Corrected_Signal_raw_counts,Calculated_Beam_c_inverse_meters,Internal_thermistor_counts
DateTime,Latitude,Longitude,Instrument_Serial,Reference_Counts,Signal_Counts,Corrected_Signal_raw_counts,Calculated_Beam_c_inverse_meters,Internal_thermistor_counts
2021-08-24T00:02:47,42.805,6.029,CST-1368DR,5278,7263,14746,0.229,551
2021-08-24T00:05:48,42.805,6.029,CST-1368DR,5278,7263,14746,0.229,551
2021-08-24T00:08:50,42.805,6.029,CST-1368DR,5278,7263,14745,0.230,551
2021-08-24T00:11:51,42.805,6.029,CST-1368DR,5278,7263,14746,0.229,551
2021-08-24T00:14:53,42.805,6.029,CST-1368DR,5278,7262,14744,0.230,551
2021-08-24T00:17:54,42.805,6.029,CST-1368DR,5278,7263,14747,0.229,551
2021-08-24T00:20:56,42.805,6.029,CST-1368DR,5278,7263,14747,0.229,551
2021-08-24T00:23:58,42.805,6.029,CST-1368DR,5278,7263,14745,0.230,551
2021-08-24T00:26:59,42.805,6.029,CST-1368DR,5278,7262,14744,0.230,551
2021-08-24T00:30:01,42.805,6.029,CST-1368DR,5278,7263,14746,0.229,551
2021-08-24T00:33:02,42.805,6.029,CST-1368DR,5278,7263,14747,0.229,551
2021-08-24T00:36:04,42.805,6.029,CST-1368DR,5278,7263,14745,0.230,551
2021-08-24T00:39:05,42.805,6.029,CST-1368DR,5278,7262,14744,0.230,551
2021-08-24T00:42:07,42.805,6.029,CST-1368DR,5278,7263,14746,0.229,550
2021-08-24T00:45:09,42.805,6.029,CST-1368DR,5278,7263,14746,0.229,551
2021-08-24T00:48:10,42.805,6.029,CST-1368DR,5278,7262,14744,0.230,550
2021-08-24T00:51:12,42.805,6.029,CST-1368DR,5278,7263,14746,0.229,551
2021-08-24T00:54:13,42.805,6.029,CST-1368DR,5278,7261,14743,0.230,551
2021-08-24T00:57:15,42.805,6.029,CST-1368DR,5278,7262,14744,0.230,551
2021-08-24T01:00:17,42.805,6.029,CST-1368DR,5278,7263,14745,0.230,551
2021-08-24T01:03:18,42.805,6.029,CST-1368DR,5278,7263,14745,0.230,551
2021-08-24T01:06:20,42.805,6.029,CST-1368DR,5278,7263,14745,0.230,551
2021-08-24T01:09:21,42.805,6.029,CST-1368DR,5278,7263,14745,0.230,551
2021-08-24T01:12:23,42.805,6.029,CST-1368DR,5278,7262,14743,0.230,551
2021-08-24T01:15:24,42.805,6.029,CST-1368DR,5278,7262,14744,0.230,551
2021-08-24T01:18:26,42.805,6.029,CST-1368DR,5278,7262,14744,0.230,551
2021-08-24T01:21:28,42.805,6.029,CST-1368DR,5278,7262,14744,0.230,551
2021-08-24T01:24:29,42.805,6.029,CST-1368DR,5278,7263,14745,0.230,551
2021-08-24T01:27:31,42.805,6.029,CST-1368DR,5278,7263,14746,0.229,550
2021-08-24T01:30:32,42.805,6.029,CST-1368DR,5278,7262,14743,0.230,551
2021-08-24T01:33:34,42.805,6.029,CST-1368DR,5278,7262,14743,0.230,551
2021-08-24T01:36:36,42.805,6.029,CST-1368DR,5278,7260,14740,0.231,551
2021-08-24T01:39:37,42.805,6.029,CST-1368DR,5278,7260,14739,0.231,551
2021-08-24T01:42:39,42.805,6.029,CST-1368DR,5278,7261,14743,0.230,551
2021-08-24T01:45:40,42.805,6.029,CST-1368DR,5278,7262,14743,0.230,551
2021-08-24T01:48:42,42.805,6.029,CST-1368DR,5278,7263,14746,0.229,551
2021-08-24T01:51:43,42.805,6.029,CST-1368DR,5278,7263,14745,0.230,551
2021-08-24T01:54:45,42.805,6.029,CST-1368DR,5278,7261,14743,0.230,551
2021-08-24T01:57:47,42.805,6.029,CST-1368DR,5278,7261,14742,0.230,551
2021-08-24T02:00:48,42.805,6.029,CST-1368DR,5278,7261,14743,0.230,551
2021-08-24T02:03:50,42.805,6.029,CST-1368DR,5278,7263,14745,0.230,551
2021-08-24T02:06:51,42.805,6.029,CST-1368DR,5278,7262,14743,0.230,551
2021-08-24T02:09:53,42.805,6.029,CST-1368DR,5278,7263,14745,0.230,551
2021-08-24T02:12:54,42.805,6.029,CST-1368DR,5278,7262,14744,0.230,551
2021-08-24T02:15:56,42.805,6.029,CST-1368DR,5278,7261,14742,0.230,551
2021-08-24T02:18:58,42.805,6.029,CST-1368DR,5278,7262,14743,0.230,551
2021-08-24T02:21:59,42.805,6.029,CST-1368DR,5278,7262,14744,0.230,551
2021-08-24T02:25:01,42.805,6.029,CST-1368DR,5278,7262,14744,0.230,551
2021-08-24T02:28:02,42.805,6.029,CST-1368DR,5278,7261,14743,0.230,551
2021-08-24T02:31:04,42.805,6.029,CST-1368DR,5278,7262,14744,0.230,551
2021-08-24T02:34:06,42.805,6.029,CST-1368DR,5278,7261,14743,0.230,551
2021-08-24T02:37:07,42.805,6.029,CST-1368DR,5278,7262,14744,0.230,551
2021-08-24T02:40:09,42.805,6.029,CST-1368DR,5278,7262,14744,0.230,551
2021-08-24T02:43:10,42.805,6.029,CST-1368DR,5278,7262,14744,0.230,551
2021-08-24T02:46:12,42.805,6.029,CST-1368DR,5278,7260,14740,0.231,551
2021-08-24T02:49:13,42.805,6.029,CST-1368DR,5278,7261,14742,0.230,551
2021-08-24T02:52:15,42.805,6.029,CST-1368DR,5278,7262,14744,0.230,551
2021-08-24T02:55:17,42.805,6.029,CST-1368DR,5278,7262,14743,0.230,551
2021-08-24T02:58:18,42.805,6.029,CST-1368DR,5278,7261,14743,0.230,551
2021-08-24T03:01:20,42.805,6.029,CST-1368DR,5278,7261,14742,0.230,551
2021-08-24T03:04:21,42.805,6.029,CST-1368DR,5278,7262,14743,0.230,551
2021-08-24T03:07:23,42.805,6.029,CST-1368DR,5278,7261,14743,0.230,551
2021-08-24T03:10:25,42.805,6.029,CST-1368DR,5278,7261,14743,0.230,551
2021-08-24T03:13:26,42.805,6.029,CST-1368DR,5278,7262,14744,0.230,551
2021-08-24T03:16:28,42.805,6.029,CST-1368DR,5278,7262,14743,0.230,551
2021-08-24T03:19:29,42.805,6.029,CST-1368DR,5278,7262,14743,0.230,551
2021-08-24T03:22:31,42.805,6.029,CST-1368DR,5278,7262,14744,0.230,551
2021-08-24T03:25:32,42.805,6.029,CST-1368DR,5278,7262,14744,0.230,551
2021-08-24T03:28:34,42.805,6.029,CST-1368DR,5278,7262,14743,0.230,551
2021-08-24T03:31:36,42.805,6.029,CST-1368DR,5278,7262,14744,0.230,551
2021-08-24T03:34:37,42.805,6.029,CST-1368DR,5278,7262,14743,0.230,551
2021-08-24T03:37:39,42.805,6.029,CST-1368DR,5278,7261,14742,0.230,551
2021-08-24T03:40:40,42.805,6.029,CST-1368DR,5278,7262,14743,0.230,551
2021-08-24T03:43:42,42.805,6.029,CST-1368DR,5278,7261,14742,0.230,551
2021-08-24T03:46:43,42.805,6.029,CST-1368DR,5278,7262,14744,0.230,551
2021-08-24T03:49:45,42.805,6.029,CST-1368DR,5278,7261,14742,0.230,551
2021-08-24T03:52:47,42.805,6.029,CST-1368DR,5278,7261,14743,0.230,551
2021-08-24T03:55:48,42.805,6.029,CST-1368DR,5278,7261,14742,0.230,551
2021-08-24T03:58:50,42.805,6.029,CST-1368DR,5278,7261,14741,0.231,551
2021-08-24T04:01:51,42.805,6.029,CST-1368DR,5277,7261,14745,0.230,551
2021-08-24T04:04:53,42.805,6.029,CST-1368DR,5278,7261,14741,0.231,550
2021-08-24T04:07:54,42.805,6.029,CST-1368DR,5278,7260,14739,0.231,551
2021-08-24T04:10:56,42.805,6.029,CST-1368DR,5278,7261,14742,0.230,551
2021-08-24T04:13:58,42.805,6.029,CST-1368DR,5278,7261,14742,0.230,551
2021-08-24T04:16:59,42.805,6.029,CST-1368DR,5278,7261,14743,0.230,551
2021-08-24T04:20:01,42.805,6.029,CST-1368DR,5277,7261,14744,0.230,551
2021-08-24T04:23:02,42.805,6.029,CST-1368DR,5278,7262,14744,0.230,551
2021-08-24T04:26:04,42.805,6.029,CST-1368DR,5277,7261,14744,0.230,551
2021-08-24T04:29:06,42.805,6.029,CST-1368DR,5278,7261,14742,0.230,551
2021-08-24T04:32:07,42.805,6.029,CST-1368DR,5277,7261,14744,0.230,551
2021-08-24T04:35:09,42.805,6.029,CST-1368DR,5277,7261,14744,0.230,551
2021-08-24T04:38:10,42.805,6.029,CST-1368DR,5277,7261,14745,0.230,551
2021-08-24T04:41:12,42.805,6.029,CST-1368DR,5277,7261,14745,0.230,551
2021-08-24T04:44:13,42.805,6.029,CST-1368DR,5277,7261,14745,0.230,551
2021-08-24T04:47:15,42.805,6.029,CST-1368DR,5277,7260,14743,0.230,550
2021-08-24T04:50:17,42.805,6.029,CST-1368DR,5277,7261,14745,0.230,551
2021-08-24T04:53:18,42.805,6.029,CST-1368DR,5278,7259,14738,0.231,551
2021-08-24T04:56:20,42.805,6.029,CST-1368DR,5277,7260,14742,0.230,551
2021-08-24T04:59:21,42.805,6.029,CST-1368DR,5277,7260,14743,0.230,551
2021-08-24T05:02:23,42.805,6.029,CST-1368DR,5277,7261,14744,0.230,551
2021-08-24T05:05:25,42.805,6.029,CST-1368DR,5277,7261,14744,0.230,551
2021-08-24T05:08:26,42.805,6.029,CST-1368DR,5277,7261,14744,0.230,550
2021-08-24T05:11:28,42.805,6.029,CST-1368DR,5277,7261,14744,0.230,551
2021-08-24T05:14:29,42.805,6.029,CST-1368DR,5277,7261,14745,0.230,551
2021-08-24T05:17:31,42.805,6.029,CST-1368DR,5277,7260,14743,0.230,551
2021-08-24T05:20:32,42.805,6.029,CST-1368DR,5277,7261,14744,0.230,551
2021-08-24T05:23:34,42.805,6.029,CST-1368DR,5277,7261,14744,0.230,551
2021-08-24T05:26:36,42.805,6.029,CST-1368DR,5277,7260,14743,0.230,551
2021-08-24T05:29:37,42.805,6.029,CST-1368DR,5277,7261,14745,0.230,551
2021-08-24T05:32:39,42.805,6.029,CST-1368DR,5277,7261,14744,0.230,551
2021-08-24T05:35:40,42.805,6.029,CST-1368DR,5277,7260,14743,0.230,551
2021-08-24T05:38:42,42.805,6.029,CST-1368DR,5277,7261,14744,0.230,551
2021-08-24T05:41:44,42.805,6.029,CST-1368DR,5277,7260,14743,0.230,551
2021-08-24T05:44:45,42.805,6.029,CST-1368DR,5277,7260,14742,0.230,551
2021-08-24T05:47:47,42.805,6.029,CST-1368DR,5277,7261,14744,0.230,551
2021-08-24T05:50:48,42.805,6.029,CST-1368DR,5277,7261,14745,0.230,551
2021-08-24T05:53:50,42.805,6.029,CST-1368DR,5277,7261,14744,0.230,551
2021-08-24T05:56:51,42.805,6.029,CST-1368DR,5277,7261,14744,0.230,551
2021-08-24T05:59:53,42.805,6.029,CST-1368DR,5277,7260,14742,0.230,551
2021-08-24T06:02:55,42.805,6.029,CST-1368DR,5277,7260,14743,0.230,551
2021-08-24T06:05:56,42.805,6.029,CST-1368DR,5277,7259,14740,0.231,551
2021-08-24T06:08:58,42.805,6.029,CST-1368DR,5277,7261,14744,0.230,551
2021-08-24T06:11:59,42.805,6.029,CST-1368DR,5277,7261,14744,0.230,551
2021-08-24T06:15:01,42.805,6.029,CST-1368DR,5277,7261,14744,0.230,551
2021-08-24T06:18:02,42.805,6.029,CST-1368DR,5277,7261,14744,0.230,551
2021-08-24T06:21:04,42.805,6.029,CST-1368DR,5277,7261,14745,0.230,551
2021-08-24T06:24:06,42.805,6.029,CST-1368DR,5277,7260,14742,0.230,551
2021-08-24T06:27:07,42.805,6.029,CST-1368DR,5277,7261,14744,0.230,551
2021-08-24T06:30:09,42.805,6.029,CST-1368DR,5277,7261,14744,0.230,551
2021-08-24T06:33:10,42.805,6.029,CST-1368DR,5277,7260,14742,0.230,551
2021-08-24T06:36:12,42.805,6.029,CST-1368DR,5277,7261,14744,0.230,551
2021-08-24T06:39:14,42.805,6.029,CST-1368DR,5277,7261,14745,0.230,551
2021-08-24T06:42:15,42.805,6.029,CST-1368DR,5277,7261,14744,0.230,551
2021-08-24T06:45:17,42.805,6.029,CST-1368DR,5277,7261,14745,0.230,551
2021-08-24T06:48:18,42.805,6.029,CST-1368DR,5277,7260,14743,0.230,551
2021-08-24T06:51:20,42.805,6.029,CST-1368DR,5277,7259,14740,0.231,551
2021-08-24T06:54:21,42.805,6.029,CST-1368DR,5277,7260,14743,0.230,551
2021-08-24T06:57:23,42.805,6.029,CST-1368DR,5277,7260,14743,0.230,551
2021-08-24T07:00:25,42.805,6.029,CST-1368DR,5277,7261,14744,0.230,551
2021-08-24T07:03:26,42.805,6.029,CST-1368DR,5277,7260,14743,0.230,551
2021-08-24T07:06:28,42.805,6.029,CST-1368DR,5277,7260,14743,0.230,551
2021-08-24T07:09:29,42.805,6.029,CST-1368DR,5277,7261,14744,0.230,551
2021-08-24T07:12:31,42.805,6.029,CST-1368DR,5277,7261,14745,0.230,551
2021-08-24T07:15:32,42.805,6.029,CST-1368DR,5277,7260,14743,0.230,551
2021-08-24T07:18:34,42.805,6.029,CST-1368DR,5277,7259,14740,0.231,551
2021-08-24T07:21:36,42.805,6.029,CST-1368DR,5277,7261,14744,0.230,551
2021-08-24T07:24:37,42.805,6.029,CST-1368DR,5277,7261,14745,0.230,551
2021-08-24T07:27:39,42.805,6.029,CST-1368DR,5277,7262,14746,0.229,551
2021-08-24T07:30:40,42.805,6.029,CST-1368DR,5277,7260,14743,0.230,551
2021-08-24T07:33:42,42.805,6.029,CST-1368DR,5277,7260,14743,0.230,551
2021-08-24T07:36:44,42.805,6.029,CST-1368DR,5277,7261,14744,0.230,551
2021-08-24T07:39:45,42.805,6.029,CST-1368DR,5277,7261,14745,0.230,551
2021-08-24T07:42:47,42.805,6.029,CST-1368DR,5277,7261,14745,0.230,551
2021-08-24T07:45:48,42.805,6.029,CST-1368DR,5277,7261,14745,0.230,551
2021-08-24T07:48:50,42.805,6.029,CST-1368DR,5277,7260,14743,0.230,551
2021-08-24T07:51:51,42.805,6.029,CST-1368DR,5277,7261,14744,0.230,551
2021-08-24T07:54:53,42.805,6.029,CST-1368DR,5277,7261,14744,0.230,551
2021-08-24T07:57:55,42.805,6.029,CST-1368DR,5277,7261,14744,0.230,551
2021-08-24T08:00:56,42.805,6.029,CST-1368DR,5277,7262,14746,0.229,551
2021-08-24T08:03:58,42.805,6.029,CST-1368DR,5277,7259,14740,0.231,551
2021-08-24T08:06:59,42.805,6.029,CST-1368DR,5277,7261,14744,0.230,551
2021-08-24T08:10:01,42.805,6.029,CST-1368DR,5277,7261,14745,0.230,551
2021-08-24T08:13:03,42.805,6.029,CST-1368DR,5277,7261,14745,0.230,551
2021-08-24T08:16:04,42.805,6.029,CST-1368DR,5277,7261,14744,0.230,551
2021-08-24T08:19:06,42.805,6.029,CST-1368DR,5277,7261,14744,0.230,551
2021-08-24T08:22:07,42.805,6.029,CST-1368DR,5277,7262,14746,0.229,551
2021-08-24T08:25:09,42.805,6.029,CST-1368DR,5277,7261,14745,0.230,551
2021-08-24T08:28:10,42.805,6.029,CST-1368DR,5277,7261,14745,0.230,551
2021-08-24T08:31:12,42.805,6.029,CST-1368DR,5277,7260,14742,0.230,551
2021-08-24T08:34:14,42.805,6.029,CST-1368DR,5277,7262,14747,0.229,551
2021-08-24T08:37:15,42.805,6.029,CST-1368DR,5277,7261,14744,0.230,551
2021-08-24T08:40:17,42.805,6.029,CST-1368DR,5277,7261,14745,0.230,551
2021-08-24T08:43:18,42.805,6.029,CST-1368DR,5277,7261,14744,0.230,551
2021-08-24T08:46:20,42.805,6.029,CST-1368DR,5277,7261,14744,0.230,551
2021-08-24T08:49:21,42.805,6.029,CST-1368DR,5277,7262,14746,0.229,551
2021-08-24T08:52:23,42.805,6.029,CST-1368DR,5277,7261,14745,0.230,551
2021-08-24T08:55:25,42.805,6.029,CST-1368DR,5277,7261,14745,0.230,550
2021-08-24T08:58:26,42.805,6.029,CST-1368DR,5277,7261,14744,0.230,551
2021-08-24T09:01:28,42.805,6.029,CST-1368DR,5277,7261,14745,0.230,551
2021-08-24T09:04:29,42.805,6.029,CST-1368DR,5277,7262,14746,0.229,551
2021-08-24T09:07:31,42.805,6.029,CST-1368DR,5277,7261,14744,0.230,551
2021-08-24T09:10:33,42.805,6.029,CST-1368DR,5277,7261,14745,0.230,551
2021-08-24T09:13:34,42.805,6.029,CST-1368DR,5277,7261,14744,0.230,551
2021-08-24T09:16:36,42.805,6.029,CST-1368DR,5277,7260,14743,0.230,551
2021-08-24T09:19:37,42.805,6.029,CST-1368DR,5277,7259,14741,0.231,550
2021-08-24T09:22:39,42.805,6.029,CST-1368DR,5277,7258,14739,0.231,551
2021-08-24T09:25:40,42.805,6.029,CST-1368DR,5277,7261,14745,0.230,551
2021-08-24T09:28:42,42.805,6.029,CST-1368DR,5277,7260,14742,0.230,551
2021-08-24T09:31:44,42.805,6.029,CST-1368DR,5277,7258,14739,0.231,551
2021-08-24T09:34:45,42.805,6.029,CST-1368DR,5277,7260,14743,0.230,551
2021-08-24T09:37:47,42.805,6.029,CST-1368DR,5277,7260,14742,0.230,551
2021-08-24T09:40:48,42.805,6.029,CST-1368DR,5277,7259,14740,0.231,551
2021-08-24T09:43:50,42.805,6.029,CST-1368DR,5277,7258,14739,0.231,551
2021-08-24T09:46:52,42.805,6.029,CST-1368DR,5276,7260,14744,0.230,551
2021-08-24T09:49:53,42.805,6.029,CST-1368DR,5276,7259,14743,0.230,551
2021-08-24T09:52:55,42.805,6.029,CST-1368DR,5276,7260,14744,0.230,551
2021-08-24T09:55:56,42.805,6.029,CST-1368DR,5276,7257,14739,0.231,551
2021-08-24T09:58:58,42.805,6.029,CST-1368DR,5276,7257,14739,0.231,551
2021-08-24T10:01:59,42.805,6.029,CST-1368DR,5276,7258,14742,0.230,551
2021-08-24T10:05:01,42.805,6.029,CST-1368DR,5276,7260,14745,0.230,551
2021-08-24T10:08:03,42.805,6.029,CST-1368DR,5276,7260,14746,0.229,551
2021-08-24T10:11:04,42.805,6.029,CST-1368DR,5276,7259,14743,0.230,551
2021-08-24T10:14:06,42.805,6.029,CST-1368DR,5276,7260,14746,0.229,551
2021-08-24T10:17:07,42.805,6.029,CST-1368DR,5276,7256,14738,0.231,551
2021-08-24T10:20:09,42.805,6.029,CST-1368DR,5276,7260,14746,0.229,551
2021-08-24T10:23:10,42.805,6.029,CST-1368DR,5276,7260,14744,0.230,551
2021-08-24T10:26:12,42.805,6.029,CST-1368DR,5276,7255,14735,0.232,551
2021-08-24T10:29:14,42.805,6.029,CST-1368DR,5277,7261,14744,0.230,550
2021-08-24T10:32:15,42.805,6.029,CST-1368DR,5277,7260,14742,0.230,551
2021-08-24T10:35:17,42.805,6.029,CST-1368DR,5277,7260,14743,0.230,551
2021-08-24T10:38:18,42.805,6.029,CST-1368DR,5276,7260,14745,0.230,551
2021-08-24T10:41:20,42.805,6.029,CST-1368DR,5277,7260,14742,0.230,550
2021-08-24T10:44:22,42.805,6.029,CST-1368DR,5277,7258,14739,0.231,551
2021-08-24T10:47:23,42.805,6.029,CST-1368DR,5277,7260,14743,0.230,551
2021-08-24T10:50:25,42.805,6.029,CST-1368DR,5277,7261,14745,0.230,551
2021-08-24T10:53:26,42.805,6.029,CST-1368DR,5277,7260,14743,0.230,551
2021-08-24T10:56:28,42.805,6.029,CST-1368DR,5277,7261,14745,0.230,551
2021-08-24T10:59:29,42.805,6.029,CST-1368DR,5277,7261,14744,0.230,551
2021-08-24T11:02:31,42.805,6.029,CST-1368DR,5277,7260,14743,0.230,551
2021-08-24T11:05:33,42.805,6.029,CST-1368DR,5277,7261,14745,0.230,551
2021-08-24T11:08:34,42.805,6.029,CST-1368DR,5277,7259,14740,0.231,551
2021-08-24T11:11:36,42.805,6.029,CST-1368DR,5277,7260,14742,0.230,551
2021-08-24T11:14:37,42.805,6.029,CST-1368DR,5277,7260,14742,0.230,551
2021-08-24T11:17:39,42.805,6.029,CST-1368DR,5276,7261,14746,0.229,551
2021-08-24T11:20:40,42.805,6.029,CST-1368DR,5276,7260,14745,0.230,551
2021-08-24T11:23:42,42.805,6.029,CST-1368DR,5276,7260,14745,0.230,551
2021-08-24T11:26:44,42.805,6.029,CST-1368DR,5276,7260,14745,0.230,551
2021-08-24T11:29:45,42.805,6.029,CST-1368DR,5276,7259,14743,0.230,551
2021-08-24T11:32:47,42.805,6.029,CST-1368DR,5276,7260,14746,0.229,551
2021-08-24T11:35:48,42.805,6.029,CST-1368DR,5276,7261,14746,0.229,551
2021-08-24T11:38:50,42.805,6.029,CST-1368DR,5276,7258,14741,0.231,551
2021-08-24T11:41:52,42.805,6.029,CST-1368DR,5276,7260,14745,0.230,550
2021-08-24T11:44:53,42.805,6.029,CST-1368DR,5276,7259,14744,0.230,551
2021-08-24T11:47:55,42.805,6.029,CST-1368DR,5276,7260,14745,0.230,551
2021-08-24T11:50:56,42.805,6.029,CST-1368DR,5276,7260,14746,0.229,551
2021-08-24T11:53:58,42.805,6.029,CST-1368DR,5276,7259,14744,0.230,551
2021-08-24T11:56:59,42.805,6.029,CST-1368DR,5276,7260,14745,0.230,551
2021-08-24T12:00:01,42.805,6.029,CST-1368DR,5276,7259,14743,0.230,551
2021-08-24T12:03:03,42.805,6.029,CST-1368DR,5276,7258,14742,0.230,551
2021-08-24T12:06:04,42.805,6.029,CST-1368DR,5276,7260,14746,0.229,551
2021-08-24T12:09:06,42.805,6.029,CST-1368DR,5276,7260,14745,0.230,551
2021-08-24T12:12:07,42.805,6.029,CST-1368DR,5276,7259,14744,0.230,551
2021-08-24T12:15:09,42.805,6.029,CST-1368DR,5276,7261,14746,0.229,551
2021-08-24T12:18:11,42.805,6.029,CST-1368DR,5276,7261,14746,0.229,551
2021-08-24T12:21:12,42.805,6.029,CST-1368DR,5276,7261,14747,0.229,551
2021-08-24T12:24:14,42.805,6.029,CST-1368DR,5276,7261,14747,0.229,551
2021-08-24T12:27:15,42.805,6.029,CST-1368DR,5276,7261,14746,0.229,550
2021-08-24T12:30:17,42.805,6.029,CST-1368DR,5276,7261,14746,0.229,551
2021-08-24T12:33:18,42.805,6.029,CST-1368DR,5276,7260,14746,0.229,551
2021-08-24T12:36:20,42.805,6.029,CST-1368DR,5276,7258,14741,0.231,551
2021-08-24T12:39:22,42.805,6.029,CST-1368DR,5276,7260,14744,0.230,551
2021-08-24T12:42:23,42.805,6.029,CST-1368DR,5276,7259,14744,0.230,551
2021-08-24T12:45:25,42.805,6.029,CST-1368DR,5276,7259,14742,0.230,551
2021-08-24T12:48:26,42.805,6.029,CST-1368DR,5276,7259,14744,0.230,551
2021-08-24T12:51:28,42.805,6.029,CST-1368DR,5276,7257,14740,0.231,551
2021-08-24T12:54:29,42.805,6.029,CST-1368DR,5276,7261,14746,0.229,551
2021-08-24T12:57:31,42.805,6.029,CST-1368DR,5276,7260,14745,0.230,551
2021-08-24T13:00:33,42.805,6.029,CST-1368DR,5276,7260,14745,0.230,551
2021-08-24T13:03:34,42.805,6.029,CST-1368DR,5276,7260,14746,0.229,550
2021-08-24T13:06:36,42.805,6.029,CST-1368DR,5276,7260,14746,0.229,551
2021-08-24T13:09:37,42.805,6.029,CST-1368DR,5276,7259,14743,0.230,551
2021-08-24T13:12:39,42.805,6.029,CST-1368DR,5276,7260,14745,0.230,551
2021-08-24T13:15:41,42.805,6.029,CST-1368DR,5277,7261,14744,0.230,551
2021-08-24T13:18:42,42.805,6.029,CST-1368DR,5277,7260,14743,0.230,551
2021-08-24T13:21:44,42.805,6.029,CST-1368DR,5276,7261,14747,0.229,551
2021-08-24T13:24:45,42.805,6.029,CST-1368DR,5276,7260,14745,0.230,551
2021-08-24T13:27:47,42.805,6.029,CST-1368DR,5276,7260,14745,0.230,551
2021-08-24T13:30:48,42.805,6.029,CST-1368DR,5277,7260,14742,0.230,551
2021-08-24T13:33:50,42.805,6.029,CST-1368DR,5276,7260,14746,0.229,551
2021-08-24T13:36:52,42.805,6.029,CST-1368DR,5276,7260,14745,0.230,551
2021-08-24T13:39:53,42.805,6.029,CST-1368DR,5277,7260,14742,0.230,551
2021-08-24T13:42:55,42.805,6.029,CST-1368DR,5276,7260,14746,0.229,551
2021-08-24T13:45:56,42.805,6.029,CST-1368DR,5276,7260,14744,0.230,551
2021-08-24T13:48:58,42.805,6.029,CST-1368DR,5276,7260,14746,0.229,551
2021-08-24T13:52:00,42.805,6.029,CST-1368DR,5276,7260,14744,0.230,551
2021-08-24T13:55:01,42.805,6.029,CST-1368DR,5276,7261,14746,0.229,551
2021-08-24T13:58:03,42.805,6.029,CST-1368DR,5276,7259,14744,0.230,551
2021-08-24T14:01:04,42.805,6.029,CST-1368DR,5276,7260,14745,0.230,551
2021-08-24T14:04:06,42.805,6.029,CST-1368DR,5276,7260,14745,0.230,551
2021-08-24T14:07:07,42.805,6.029,CST-1368DR,5276,7260,14745,0.230,551
2021-08-24T14:10:09,42.805,6.029,CST-1368DR,5276,7260,14745,0.230,551
2021-08-24T14:13:11,42.805,6.029,CST-1368DR,5277,7260,14743,0.230,551
2021-08-24T14:16:12,42.805,6.029,CST-1368DR,5276,7260,14746,0.229,551
2021-08-24T14:19:14,42.805,6.029,CST-1368DR,5276,7260,14745,0.230,550
2021-08-24T14:22:15,42.805,6.029,CST-1368DR,5276,7260,14745,0.230,551
2021-08-24T14:25:17,42.805,6.029,CST-1368DR,5276,7260,14745,0.230,551
2021-08-24T14:28:18,42.805,6.029,CST-1368DR,5276,7260,14745,0.230,551
2021-08-24T14:31:20,42.805,6.029,CST-1368DR,5276,7260,14744,0.230,551
2021-08-24T14:34:22,42.805,6.029,CST-1368DR,5276,7260,14745,0.230,551
2021-08-24T14:37:23,42.805,6.029,CST-1368DR,5276,7260,14745,0.230,551
2021-08-24T14:40:25,42.805,6.029,CST-1368DR,5276,7260,14744,0.230,550
2021-08-24T14:43:26,42.805,6.029,CST-1368DR,5276,7260,14745,0.230,551
2021-08-24T14:46:28,42.805,6.029,CST-1368DR,5276,7260,14745,0.230,551
2021-08-24T14:49:30,42.805,6.029,CST-1368DR,5276,7260,14745,0.230,551
2021-08-24T14:52:31,42.805,6.029,CST-1368DR,5276,7260,14745,0.230,551
2021-08-24T14:55:33,42.805,6.029,CST-1368DR,5276,7260,14746,0.229,551
2021-08-24T14:58:34,42.805,6.029,CST-1368DR,5276,7260,14746,0.229,551
2021-08-24T15:01:36,42.805,6.029,CST-1368DR,5276,7260,14745,0.230,551
2021-08-24T15:04:37,42.805,6.029,CST-1368DR,5276,7260,14745,0.230,551
2021-08-24T15:07:39,42.805,6.029,CST-1368DR,5276,7260,14745,0.230,551
2021-08-24T15:10:41,42.805,6.029,CST-1368DR,5276,7260,14745,0.230,551
2021-08-24T15:13:42,42.805,6.029,CST-1368DR,5276,7260,14745,0.230,551
2021-08-24T15:16:44,42.805,6.029,CST-1368DR,5276,7260,14745,0.230,551
2021-08-24T15:19:45,42.805,6.029,CST-1368DR,5276,7260,14744,0.230,551
2021-08-24T15:22:47,42.805,6.029,CST-1368DR,5276,7260,14745,0.230,551
2021-08-24T15:25:49,42.805,6.029,CST-1368DR,5276,7260,14744,0.230,551
2021-08-24T15:28:50,42.805,6.029,CST-1368DR,5276,7260,14745,0.230,551
2021-08-24T15:31:52,42.805,6.029,CST-1368DR,5276,7260,14745,0.230,551
2021-08-24T15:34:53,42.805,6.029,CST-1368DR,5276,7260,14744,0.230,551
2021-08-24T15:37:55,42.805,6.029,CST-1368DR,5276,7258,14742,0.230,551
2021-08-24T15:40:56,42.805,6.029,CST-1368DR,5276,7258,14742,0.230,551
2021-08-24T15:43:58,42.805,6.029,CST-1368DR,5276,7260,14744,0.230,551
2021-08-24T15:47:00,42.805,6.029,CST-1368DR,5276,7260,14744,0.230,551
2021-08-24T15:50:01,42.805,6.029,CST-1368DR,5276,7258,14740,0.231,551
2021-08-24T15:53:03,42.805,6.029,CST-1368DR,5276,7260,14744,0.230,551
2021-08-24T15:56:04,42.805,6.029,CST-1368DR,5276,7260,14745,0.230,551
2021-08-24T15:59:06,42.805,6.029,CST-1368DR,5276,7259,14744,0.230,551
2021-08-24T16:02:07,42.805,6.029,CST-1368DR,5276,7260,14745,0.230,551
2021-08-24T16:05:09,42.805,6.029,CST-1368DR,5276,7260,14744,0.230,551
2021-08-24T16:08:11,42.805,6.029,CST-1368DR,5276,7259,14744,0.230,550
2021-08-24T16:11:12,42.805,6.029,CST-1368DR,5276,7259,14744,0.230,551
2021-08-24T16:14:14,42.805,6.029,CST-1368DR,5276,7260,14744,0.230,551
2021-08-24T16:17:15,42.805,6.029,CST-1368DR,5276,7260,14744,0.230,551
2021-08-24T16:20:17,42.805,6.029,CST-1368DR,5276,7259,14744,0.230,551
2021-08-24T16:23:19,42.805,6.029,CST-1368DR,5276,7259,14742,0.230,551
2021-08-24T16:26:20,42.805,6.029,CST-1368DR,5276,7260,14745,0.230,551
2021-08-24T16:29:22,42.805,6.029,CST-1368DR,5276,7259,14744,0.230,551
2021-08-24T16:32:23,42.805,6.029,CST-1368DR,5276,7259,14744,0.230,551
2021-08-24T16:35:25,42.805,6.029,CST-1368DR,5276,7259,14743,0.230,551
2021-08-24T16:38:26,42.805,6.029,CST-1368DR,5276,7260,14744,0.230,550
2021-08-24T16:41:28,42.805,6.029,CST-1368DR,5276,7259,14744,0.230,551
2021-08-24T16:44:30,42.805,6.029,CST-1368DR,5276,7258,14741,0.231,550
2021-08-24T16:47:31,42.805,6.029,CST-1368DR,5276,7260,14745,0.230,551
2021-08-24T16:50:33,42.805,6.029,CST-1368DR,5276,7259,14743,0.230,551
2021-08-24T16:53:34,42.805,6.029,CST-1368DR,5276,7258,14741,0.231,551